Showing default

MIDAS 4, 192

Orbit data source: Space-Track

MIDAS 4, 192 is a payload satellite owned by USAF SSD (US) in LEO that was launched on Sat, 21 Oct 1961 UTC via an ATLAS AGENA B launch vehicle from the Air Force Western Test Range (AFWTR). Payload-class satellites include a variety of spacecraft equipped with specific instruments for various scientific and technological missions. These include communications satellites like Starlink; space stations such as the ISS; scientific satellites like the Hubble; Earth observation satellites from companies like Planet Labs, Umbra, and HawkEye 360; GPS; miniature CubeSats for education and research; and military/defense satellites.

Loading next visibility...
Identifier
192, 1961-028A
Orbit
LEO
Country
Flag of USUS
Related business
Manufacturer
LMSC
Mission
Spacecraft
Bus & Motor
MIDAS, Unknown motor
Mass
~1,540 kg wet, 840 kg dry
Launch date (UTC)
1961-10-21 (65 years ago)
Launch vehicle
ATLAS AGENA B
Launch site
Air Force Western Test Range (AFWTR)
Object type
Payload
Rocket body
Debris
Shape & HBR
Unknown
Radar Cross Section
Large (>1 m²)

Expand to show TLE details & history
Last TLE update: 2 days ago

TLE from 2 days ago
0 MIDAS 4
1 00192U 61028A   26171.13487393 -.00000006  00000-0 -12033-2 0  9993
2 00192  95.8468 224.2397 0134597 325.0712  34.1369  8.67767444 48418
Epoch: 2026-06-20T03:14Z
TLE epoch observation values (Epoch: 2026-06-20T03:14:13.107Z)
Latitude
0.00001°
Longitude
-92.66876°
Altitude
3,516.208 km
Speed
6.383 km/s
True Right ascension
14h 56m 57s
True Declination
0° 00' 00"
Sunlit
Object was in daylight at epoch
Visualization orbit readout
Latitude
Unknown
Longitude
Unknown
Altitude
Unknown
Speed
Unknown
Apparent Right ascension
Unknown
Apparent Declination
Unknown
Sunlit
N/A
Visualization observer readout
Local Sidereal Time
00:50:21
Azimuth
Unknown
Elevation
Unknown
Doppler factor
Unknown
Orbital elements
Apogee altitude
3,757.407 km
Perigee altitude
3,488.188 km
Semi-major axis
10,000.935 km
Eccentricity
0.01346
Inclination
95.8468°
RAAN
224.2397°
Arg. of periapsis
325.0712°
True anomaly
35.01462°
Mean anomaly
34.1369°
Eccentric anomaly
34.57453°
Mean motion
2.17011 °/min
Orbital period
165.89 mins
BSTAR
-0.0012033
Loading maneuver chart data...
Computing Atmospheric mass density...
Loading historical data...
Loading historical data...
Loading historical data...
Loading historical data...
Loading historical data...
Loading historical data...
Loading historical data...

Documentation

Showing up to 5 results
|